Regional Weather Roundup
Issued by NWS Jackson, KY

Home | Current Version | Previous Version | Text Only | Print | Product List | Glossary On
Versions: 1 2 3 4 5 6 7 8 9 10 11 12 13 14 15 16 17 18 19 20 21 22 23 24 25 26 27
000
ASUS43 KJKL 280310
RWRJKL

EAST KENTUCKY HOURLY WEATHER ROUNDUP
NATIONAL WEATHER SERVICE JACKSON KY
1000 PM EST TUE FEB 27 2024

NOTE: "FAIR" INDICATES FEW OR NO CLOUDS BELOW 12,000 FEET WITH
NO SIGNIFICANT WEATHER AND/OR OBSTRUCTIONS TO VISIBILITY.

* THESE REPORTS ARE NOT UNDER NWS QUALITY CONTROL AND MAY NOT
  REPORT WEATHER SUCH AS PRECIPITATION AND FOG.

KYZ079-080-083-085-087-088-110-112-115-119-120-280400
...EASTERN KENTUCKY...

CITY           SKY/WX    TMP DP  RH WIND       PRES   REMARKS
JACKSON        CLOUDY    68  52  56 MISG      29.59F
LONDON         CLOUDY    65  54  67 S5        29.66F
SOMERSET*      CLOUDY    70  55  60 S15G24    29.63R
MONTICELLO*    CLOUDY    69  55  60 S17       29.68R
WILLIAMSBURG*  CLOUDY    68  54  60 S15G22    29.69R
MIDDLESBORO*   LGT RAIN  68  55  62 S16G28    29.71F
HARLAN APT*    CLOUDY    68  55  64 SW6       29.75F
PIKE CO APT*   CLOUDY    67  51  58 S7G23     29.66R
BIG SANDY APT* CLOUDY    65  53  64 S14       29.62F
MOREHEAD APT*  MOCLDY    61  54  77 S7        29.58F
ASHLAND*       MOCLDY    59  54  83 E6        29.58F
$$

KYZ035-036-041-042-044-050-067-078-099-280400
...CENTRAL KENTUCKY...

CITY           SKY/WX    TMP DP  RH WIND       PRES   REMARKS
MT STERLING*   MOCLDY    63  54  72 SW12G18   29.59R
FLEMING/MASON* MOCLDY    60  53  79 S9        29.57S
DANVILLE*      CLOUDY    68  54  60 SW20G30   29.60R
RICHMOND*      CLOUDY    68  55  64 SW18G33   29.60R
LEXINGTON      CLOUDY    68  56  65 S18G26    29.57R
FRANKFORT      CLOUDY    67  56  67 S15G24    29.52F
LOUISVILLE     CLOUDY    71  56  58 S16G24    29.50R
LEBANON*       CLOUDY    68  55  64 S22       29.57R
GLASGOW*       CLOUDY    70  57  63 S17G32    29.61R
BOWLING GREEN  CLOUDY    72  56  57 S21G31    29.58R
$$

KYZ091>093-OHZ055-061-077-WVZ005-015-034-035-042-280400
...SOUTHERN OHIO/WEST VIRGINIA...

CITY           SKY/WX    TMP DP  RH WIND       PRES   REMARKS
COVINGTON      CLOUDY    62  56  80 S14       29.49F
COLUMBUS       CLOUDY    62  53  72 SE10      29.54F
DAYTON         MOCLDY    63  56  78 S15G24    29.47F
WILMINGTON     PTCLDY    60  53  77 S13       29.50F
HUNTINGTON     MOCLDY    64  51  62 SE5       29.58F
CHARLESTON     CLOUDY    58  49  72 CALM      29.65F
PINEVILLE*     CLOUDY    55  51  89 MISG      29.78R
BECKLEY        CLOUDY    54  48  80 SE10      29.76S
BLUEFIELD      CLOUDY    56  47  71 S8G22     29.78F
LOGAN CO APT*  CLOUDY    64  50  59 S12G22    29.66F
$$

VAZ002-007-008-TNZ017-027-036-066-071-280400
...SOUTHWEST VIRGINIA/EAST TENNESSEE...

CITY           SKY/WX    TMP DP  RH WIND       PRES   REMARKS
WISE*          DRIZZLE   59  50  72 SW22G30   29.82R
ABINGDON*      CLOUDY    60  49  67 W3        29.81R
BRISTOL        LGT RAIN  59  52  77 CALM      29.78R
MORRISTOWN*    MOCLDY    63  55  77 CALM      29.73F
SEVIERVILLE*   MOCLDY    73  54  49 S15G35    29.73F
KNOXVILLE      CLOUDY    71  55  56 S25G38    29.75S
LAFOLLETTE*    CLOUDY    70  55  60 SW16G43   29.75R
CROSSVILLE     CLOUDY    65  55  70 S13G28    29.77R
NASHVILLE      CLOUDY    72  55  55 S23G39    29.63R
$$

...KEY TO REMARKS...
VSB - VISIBILITY IN MILES
WCI - WIND CHILL INDEX
HX  - HEAT INDEX

$$



USA.gov is the U.S. government's official web portal to all federal, state and local government web resources and services.